Find BONUM-1

NORAD ID: 25546 Int'l Des: 1998-068 Owner: BONUM Country: RU operational
HEOCIRCULAR

Current View

Loading 3D Globe...

About BONUM-1

Description loading...

Upcoming Passes

Passes for default location (London). Set your location on the main map for personalized predictions.

Altitude History

Loading altitude history...

Two-Line Element Set

1 25546U 98068A 26149.53360128 -.00000287 00000-0 00000-0 0 9991
2 25546 10.8518 46.5823 0004286 4.6836 172.4249 0.99040890100359
Epoch: May 29, 2026 • Age: 15 hours

Current Status

Altitude 36119.8 km
Velocity 3.06 km/s
Sub-Earth Point 7.38°N, 141.25°E
Launch Date Nov 22, 1998
Age 27.5 years
Type other

Technical Details

Classification Payload
Mass 795.00 kg
Dry Mass 600.00 kg
Total Mass 1425.00 kg
Length 7.50 m
Diameter 2.20 m
Span 7.50 m
Shape Cyl
Manufacturer HSES
Bus Type HS-376HP
Phase Status Renamed
Owner/State BONUM/RU

Most Searched